Location: Unspecified
(35.7250°N, 0.0000°E)
Time: 10:30:56
(UTC+00:00)

Vanguard 1 - Pass Details

Date: 02 July 2019
Orbit: 653 x 3830 km, 34.3° (Epoch: 20 July)

Event Time Altitude Azimuth Distance (km) Brightness Sun altitude
Rises 04:30:39 0° 281° (WNW) 7,575 14.1 -3.9°
Reaches altitude 10° 04:36:20 10° 280° (W) 6,207 13.7 -2.9°
Maximum altitude 04:53:50 68° 203° (SSW) 2,227 11.8 0.2°
Drops below altitude 10° 05:03:05 10° 122° (ESE) 3,491 13.4 1.9°
Sets 05:05:23 0° 119° (ESE) 4,184 13.8 2.3°
